Regional Weather Roundup
Issued by NWS Upton, NY

Current Version | Previous Version | Graphics & Text | Print | Product List | Glossary Off
Versions: 1 2 3 4 5 6 7 8 9 10 11 12 13 14 15 16 17 18 19 20 21 22 23 24 25 26 27

000
ASUS41 KOKX 221709
RWROKX

REGIONAL WEATHER ROUNDUP
NATIONAL WEATHER SERVICE NEW YORK NY
100 PM EDT FRI SEP 22 2017

NOTE: "FAIR" INDICATES FEW OR NO CLOUDS BELOW 12,000 FEET WITH NO
SIGNIFICANT WEATHER AND/OR OBSTRUCTIONS TO VISIBILITY.

NYZ071-072-176-178-NJZ106-104-221800-
NEW YORK CITY METRO AREA

CITY           SKY/WX    TMP DP  RH WIND       PRES   REMARKS
Central Park   SUNNY     80  55  42 VRB6      30.01F
Bronx Bot Gard   N/A     77  52  41 N16       30.01S
LaGuardia APRT MOSUNNY   78  56  46 N20       29.97F
Kennedy INTL   MOSUNNY   81  55  40 N21G28    29.97F
Breezy Point     N/A     77 N/A N/A N10G16      N/A
Newark/Liberty PTSUNNY   80  53  39 N15G23    29.98F
Teterboro      PTSUNNY   80  55  42 N15G25    29.97F
$$

NYZ177-179-078>081-221800-
LONG ISLAND NEW YORK

CITY           SKY/WX    TMP DP  RH WIND       PRES   REMARKS
Jones Beach      N/A     75 N/A N/A N21         N/A
Matinecock PT    N/A     75 N/A N/A N15         N/A
Farmingdale    SUNNY     79  55  43 N17G26    29.95F
MacArthur/ISP  MOSUNNY   79  58  48 N20G30    29.93F
Shirley        PTSUNNY   78  58  49 N21G29    29.94F
Mt Sinai Harb    N/A    N/A N/A N/A N14         N/A
Westhampton    PTSUNNY   75  56  51 N22G31    29.93F
East Hampton   CLOUDY    66  60  80 N16G25    29.93R
Montauk          N/A     67  59  75 N13G26    29.93S
$$

NYZ052-065-067-221800-
HUDSON VALLEY

CITY           SKY/WX    TMP DP  RH WIND       PRES   REMARKS
White Plains   MOSUNNY   79  54  41 N21G29    29.99F
Larchmont Harb   N/A     75 N/A N/A NW18        N/A
Croton On Huds   N/A     79 N/A N/A N9G17       N/A
Newburgh       MOSUNNY   77  50  38 NE16G26   30.06S
Montgomery     MOSUNNY   78  51  38 NE13      30.04F
Poughkeepsie   SUNNY     75  49  39 N16       30.03F
Albany         CLOUDY    75  52  44 N13G18    30.09F
$$

NJZ001-105-106-008-010-013-015-019>022-104-221800-
NEW JERSEY

CITY           SKY/WX    TMP DP  RH WIND       PRES   REMARKS
Newark/Liberty PTSUNNY   80  53  39 N15G23    29.98F
Teterboro      PTSUNNY   80  55  42 N15G25    29.97F
Caldwell       MOSUNNY   78  54  43 N10G17    30.01F
Somerville     NOT AVBL
Linden         FAIR      81  52  36 N15       29.99F
Perth Amboy      N/A     75 N/A N/A N15G21      N/A
Sussex         SUNNY     79  53  40 NE9       30.04F
Andover          N/A     78  52  40 VRB5      30.04F
Trenton        MOSUNNY   80  55  42 N12G17    30.00F
Millville      CLOUDY    79  58  48 N10       30.01F
Atlantic City  CLOUDY    76  55  48 NW15      29.98F
Wrightstown    MOSUNNY   79  55  43 NW14      29.97F
Toms River     MOSUNNY   78  56  46 N15G21    29.98F
Belmar         CLOUDY    78  55  44 N14       29.98F
$$

PAZ047>061-062-071-221800-
EASTERN PENNSYLVANIA

CITY           SKY/WX    TMP DP  RH WIND       PRES   REMARKS
Philadelphia   CLOUDY    77  57  50 VRB7      30.02F
Allentown      SUNNY     82  48  30 VRB7      30.04F
Scranton       SUNNY     80  51  36 N9        30.09F
$$

CTZ002-004>006-009-010-012-RIZ004-006-007-MAZ004-011-015-221800-
SOUTHERN NEW ENGLAND
 IN CT

CITY           SKY/WX    TMP DP  RH WIND       PRES   REMARKS
Bradley INTL   PTSUNNY   73  52  47 N17G26    30.02S
Hartford       CLOUDY    75  54  47 N16       29.99F
Danbury        MOSUNNY   77  55  46 N15G23    30.02S
Wtrbury/Oxford PTSUNNY   75  57  53 N21G26    30.00F
Norwalk Harbor   N/A     75 N/A N/A N16         N/A
Bridgeport     MOSUNNY   79  56  45 N13       29.95F
Meriden        SUNNY     75  54  47 N18G25    29.98F
New Haven      SUNNY     75  54  47 N21G31    29.95F
Chester        FAIR      75  57  53 N16G28    29.96S
Groton         LGT RAIN  68  58  70 N22       29.93R
Wilimantic     CLOUDY    71  58  63 NE21G31   29.98F

 IN RI

CITY           SKY/WX    TMP DP  RH WIND       PRES   REMARKS
Providence     LGT RAIN  60  59  96 N23G32    29.97S FOG
Block Island   CLOUDY    62  56  80 N25G36    29.91R
Westerly       CLOUDY    69  58  67 N18G24    29.93F
 IN MA

CITY           SKY/WX    TMP DP  RH WIND       PRES   REMARKS
Boston         LGT RAIN  60  56  86 N25G36    30.01S
Worcester      CLOUDY    64  51  62 N16G32    30.03S
Westfield      PTSUNNY   74  50  42 N17G29    30.03S
Provincetown   LGT RAIN  59  57  94 NE30G36   29.93S FOG
Nantucket      LGT RAIN  62  62 100 N28G37    29.79S FOG
$$

ANZ330-335-338-340-345-350-353-355-221800-
COASTAL MARINE OBSERVATIONS


STATION/POSITION TIME  SKY/WX   TEMP    WIND        PRES    VSBY  WAVE
                                AIR SEA DIR/SP/G                  HT/PER
                 (UTC)          (F)     (DEG/KT/KT) (MB)    (MI)  (FT/S)
NY HARB ENTRANCE 1550            71 70  330/ 16/ 19 1014.1          5/11
20 S FIRE ISLAND 1550            69 67  350/ 17/ 19 1013.7          7/ 8
GREAT SOUTH BAY  1615            74 70  360/ 17/ 25   N/A
23 SSW MONTAUK P 1550            65 65              1012.5          9/ 7
15 E BARNEGAT LI 1630               69                N/A           8/11
HUDSON CANYON    1550            67 68  350/ 23/ 27 1011.8         10/ 9
KINGS POINT      1630            74 71   30/ 12/ 15 1015.9
EXECUTION ROCKS  1645            76      20/ 16/ 19   N/A
WESTERN LI SOUND NOT AVBL
CENTRAL LI SOUND 1630            71      10/ 19/ 23   N/A           2
EASTERN LI SOUND NOT AVBL
ROBBINS REEF     1630            75     340/ 17/ 20 1016.0
$$


>>>>>>>>>>>>>>>>>>>>>>>>>>>> KEY <<<<<<<<<<<<<<<<<<<<<<<<<<<
>                                                          <
>     SKY/WX - Sky Condition/Present Weather               <
>     TMP    - Temperature in Fahrenheit                   <
>     DP     - Dew Point in Fahrenheit                     <
>     RH     - Relative Humidity in Percent                <
>     WIND   - Direction (from) and Speed in MPH           <
>     PRES   - Mean Sea Level Pressure (inches of Hg)      <
>     WCI    - Wind Chill Index                            <
>     VSB    - VISIBILITY IN MILES                         <
>     HX     - HEAT INDEX                                  <
>     TC     - TEMPERATURE IN CELSIUS                      <
>     VRB    - VARIABLE WIND DIRECTION                     <
>                                                          <
>>>>>>>>>>>>>>>>>>>>>>>>>>>> KEY <<<<<<<<<<<<<<<<<<<<<<<<<<<




USA.gov is the U.S. government's official web portal to all federal, state and local government web resources and services.